Burns, OR

1:38 AM PDT on April 23, 2018 (GMT -0700)
Burns Municipal

Weather History for KBNO - May, 2013

Change the Weather History Date:

Thursday, May 2, 2013

  Actual Average Record
Temperature  
Mean Temperature 47 °F 47 °F  
Max Temperature 71 °F 62 °F 85 °F (1947)
Min Temperature 23 °F 33 °F 20 °F (1997)
Degree Days  
Heating Degree Days 18 18  
Month to date heating degree days 47 36  
Since 1 July heating degree days 6888 7076  
Cooling Degree Days 0 0  
Month to date cooling degree days 0 0  
Year to date cooling degree days 0 0  
Moisture  
Dew Point 12 °F    
Average Humidity 41    
Maximum Humidity 74    
Minimum Humidity 7    
Precipitation  
Precipitation 0.00 in 0.04 in 0.36 in (2009)
Month to date precipitation 0.00 0.07  
Year to date precipitation 1.31 4.30  
Sea Level Pressure  
Sea Level Pressure 30.45 in    
Wind  
Wind Speed 6 mph (NE)    
Max Wind Speed 18 mph    
Max Gust Speed 25 mph    
Visibility 10 miles    
Events      
T = Trace of Precipitation, MM = Missing Value Source: NWS Daily Summary

Daily Weather History Graph

Daily Weather History Graph

Search for Another Location

Airport or City:

Astronomy

May. 02, 2013 Rise Set
Actual Time 5:46 AM PDT 7:59 PM PDT
Civil Twilight 5:14 AM PDT 8:31 PM PDT
Nautical Twilight 4:36 AM PDT 9:10 PM PDT
Astronomical Twilight 3:52 AM PDT 9:54 PM PDT
Moon 1:50 AM PDT (5/2) 12:41 PM PDT (5/2)
Length of Visible Light 15h 16m
Length of Day
14h 13m
Waning Gibbous, 46% of the Moon is Illuminated
May 2
Waning Gibbous
May 9
New
May 17
First Quarter
May 24
Full
May 31
Last Quarter

Hourly Weather History & Observations

Time (PDT) Temp. Windchill Dew Point Humidity Pressure Visibility Wind Dir Wind Speed Gust Speed Precip Events Conditions
12:53 AM 30.0 °F 23.2 °F 14.0 °F 51% 30.60 in 10.0 mi West 6.9 mph - N/A   Clear
1:53 AM 26.1 °F - 12.9 °F 58% 30.61 in 10.0 mi Calm Calm - N/A   Clear
2:53 AM 26.1 °F - 12.0 °F 55% 30.59 in 10.0 mi Calm Calm - N/A   Clear
3:53 AM 25.0 °F 19.3 °F 12.9 °F 60% 30.58 in 10.0 mi West 4.6 mph - N/A   Clear
4:53 AM 24.1 °F 18.2 °F 16.0 °F 71% 30.58 in 10.0 mi WSW 4.6 mph - N/A   Clear
5:53 AM 23.0 °F 17.0 °F 16.0 °F 74% 30.58 in 10.0 mi WSW 4.6 mph - N/A   Clear
6:53 AM 34.0 °F 31.0 °F 15.1 °F 46% 30.56 in 10.0 mi West 3.5 mph - N/A   Clear
7:53 AM 48.9 °F - 16.0 °F 27% 30.56 in 10.0 mi NNE 10.4 mph - N/A   Clear
8:53 AM 52.0 °F - 12.0 °F 20% 30.55 in 10.0 mi ENE 11.5 mph 19.6 mph N/A   Clear
9:53 AM 55.0 °F - 14.0 °F 20% 30.54 in 10.0 mi ENE 6.9 mph 16.1 mph N/A   Clear
10:53 AM 59.0 °F - 9.0 °F 14% 30.52 in 10.0 mi East 10.4 mph - N/A   Clear
11:53 AM 62.1 °F - 9.0 °F 12% 30.49 in 10.0 mi East 11.5 mph 20.7 mph N/A   Clear
12:53 PM 64.0 °F - 5.0 °F 10% 30.46 in 10.0 mi ENE 6.9 mph 19.6 mph N/A   Clear
1:53 PM 66.9 °F - 8.1 °F 10% 30.43 in 10.0 mi ENE 9.2 mph 19.6 mph N/A   Clear
2:53 PM 69.1 °F - 5.0 °F 8% 30.39 in 10.0 mi East 12.7 mph 19.6 mph N/A   Clear
3:53 PM 71.1 °F - 5.0 °F 8% 30.36 in 10.0 mi Variable 3.5 mph - N/A   Clear
4:53 PM 70.0 °F - 3.0 °F 7% 30.34 in 10.0 mi Variable 4.6 mph - N/A   Clear
5:53 PM 69.1 °F - 1.9 °F 7% 30.33 in 10.0 mi East 8.1 mph - N/A   Clear
6:53 PM 66.0 °F - 17.1 °F 15% 30.30 in 10.0 mi NNE 8.1 mph - N/A   Clear
7:53 PM 54.0 °F - 19.0 °F 25% 30.28 in 10.0 mi NNE 8.1 mph - N/A   Clear
8:53 PM 48.0 °F - 18.0 °F 30% 30.29 in 10.0 mi NNE 9.2 mph - N/A   Clear
9:53 PM 46.0 °F 41.0 °F 19.0 °F 34% 30.29 in 10.0 mi NNE 10.4 mph - N/A   Clear
10:53 PM 39.9 °F - 19.9 °F 45% 30.28 in 10.0 mi Calm Calm - N/A   Clear
11:53 PM 35.1 °F 31.0 °F 21.0 °F 57% 30.29 in 10.0 mi NW 4.6 mph - N/A   Clear